FW1664 Weather Reports


Display with metric or nautical units.
time (UTC)temp
F
wind
direction
speed
MPH
gust
MPH
rain 1hr
in
rain 24hr
in
rain mn
in
humidity
%
barometer
mb
20260906224548 65 360 8.0 14.0 0.00 0.00 0.00 72 1013.6
20260906223041 65 360 10.0 14.0 0.00 0.00 0.00 72 1013.5
20260906221544 65 360 8.0 13.0 0.00 0.00 0.00 72 1013.6
20260906220039 65 360 8.0 10.0 0.00 0.00 0.00 71 1013.5
20260906214538 65 360 7.0 11.0 0.00 0.00 0.00 72 1013.6
20260906213038 65 360 6.0 11.0 0.00 0.00 0.00 73 1013.5
20260906211541 64 360 5.0 9.0 0.00 0.00 0.00 73 1013.7
20260906210037 65 302 6.0 10.0 0.00 0.00 0.00 73 1013.8
20260906204555 64 360 5.0 11.0 0.00 0.00 0.00 73 1013.7
20260906203035 64 360 6.0 12.0 0.00 0.00 0.00 72 1013.7
20260906201536 65 360 5.0 11.0 0.00 0.00 0.00 72 1013.7
20260906200032 65 348 6.0 12.0 0.00 0.00 0.00 72 1013.6
20260906194530 64 360 6.0 15.0 0.00 0.00 0.00 72 1013.6
20260906193027 64 360 9.0 14.0 0.00 0.00 0.00 72 1013.8
20260906191529 63 360 7.0 16.0 0.00 0.00 0.00 74 1013.9
20260906190021 61 331 10.0 16.0 0.00 0.00 0.00 76 1014.2
20260906184517 60 334 12.0 20.0 0.00 0.00 0.00 76 1014.5
20260906183016 59 339 11.0 20.0 0.00 0.00 0.00 78 1015.0
20260906181510 58 311 15.0 21.0 0.00 0.00 0.00 78 1015.2
20260906180008 58 360 14.0 21.0 0.00 0.00 0.00 80 1015.7
20260906174507 57 309 14.0 21.0 0.00 0.00 0.00 81 1016.0
20260906173006 57 304 12.0 18.0 0.00 0.00 0.00 82 1016.0
20260906171505 57 325 13.0 17.0 0.00 0.00 0.00 82 1016.2
20260906170006 56 315 9.0 17.0 0.00 0.00 0.00 83 1016.2
20260906164505 56 360 11.0 16.0 0.00 0.00 0.00 83 1016.3
20260906163003 57 360 10.0 14.0 0.00 0.00 0.00 83 1016.2
20260906161508 57 311 10.0 17.0 0.00 0.00 0.00 82 1016.4
20260906160003 59 360 9.0 13.0 0.00 0.00 0.00 83 1016.5
20260906154501 59 360 6.0 10.0 0.00 0.00 0.00 83 1016.5
20260906153005 59 360 2.0 6.0 0.00 0.00 0.00 82 1016.3
20260906151603 59 360 2.0 4.0 0.00 0.00 0.00 83 1016.3
20260906151501 59 360 1.0 4.0 0.00 0.00 0.00 83 1016.2
20260906150100 59 360 2.0 6.0 0.00 0.00 0.00 82 1016.2
20260906144558 59 360 5.0 9.0 0.00 0.00 0.00 81 1016.4
20260906143107 59 331 0.0 0.0 0.00 0.00 0.00 81 1016.8
20260906141555 59 331 0.0 3.0 0.00 0.00 0.00 81 1016.9
20260906140054 59 331 1.0 6.0 0.00 0.00 0.00 82 1016.6
20260906134551 58 360 3.0 5.0 0.00 0.00 0.00 83 1016.4
20260906133052 57 360 0.0 2.0 0.00 0.00 0.00 83 1016.5
20260906131549 57 360 2.0 4.0 0.00 0.00 0.00 83 1016.7
20260906130049 56 360 3.0 8.0 0.00 0.00 0.00 83 1016.3
20260906124546 56 360 4.0 8.0 0.00 0.00 0.00 83 1016.5
20260906123045 56 360 3.0 10.0 0.00 0.00 0.00 83 1016.9
20260906121550 56 360 4.0 9.0 0.00 0.00 0.00 83 1016.8
20260906120055 57 360 5.0 10.0 0.00 0.00 0.00 82 1016.7
20260906114543 57 360 5.0 10.0 0.00 0.00 0.00 83 1016.7
20260906113047 57 360 5.0 9.0 0.00 0.00 0.00 83 1016.7
20260906111544 56 360 6.0 11.0 0.00 0.00 0.00 83 1016.9
20260906110040 56 360 8.0 13.0 0.00 0.00 0.00 83 1016.8
20260906104539 56 360 10.0 16.0 0.00 0.00 0.00 83 1016.9
20260906103036 56 313 9.0 15.0 0.00 0.00 0.00 83 1017.1
20260906101538 56 310 10.0 15.0 0.00 0.00 0.00 83 1017.1
20260906100035 56 303 11.0 17.0 0.00 0.00 0.00 83 1017.2
20260906094538 55 321 10.0 15.0 0.00 0.00 0.00 84 1017.2
20260906093037 56 360 10.0 15.0 0.00 0.00 0.00 83 1017.5
20260906091534 56 311 12.0 17.0 0.00 0.00 0.00 83 1017.6
20260906090030 55 300 9.0 15.0 0.00 0.00 0.00 83 1017.6
20260906084543 55 360 11.0 17.0 0.00 0.00 0.00 83 1017.7
20260906083035 55 360 9.0 13.0 0.00 0.00 0.00 84 1017.8
20260906081525 55 360 5.0 11.0 0.00 0.00 0.00 83 1018.0
20260906080029 56 360 3.0 10.0 0.00 0.00 0.00 82 1018.1
20260906074521 56 360 9.0 14.0 0.00 0.00 0.00 82 1018.3
20260906073018 56 360 6.0 11.0 0.00 0.00 0.00 82 1018.5
20260906071515 56 360 8.0 12.0 0.00 0.00 0.00 81 1018.9
20260906070013 57 293 9.0 14.0 0.00 0.00 0.00 80 1019.2
20260906064514 57 360 7.0 10.0 0.00 0.00 0.00 79 1019.0
20260906063010 57 307 8.0 12.0 0.00 0.00 0.00 79 1019.0
20260906061512 57 360 8.0 12.0 0.00 0.00 0.00 80 1018.9
20260906060005 57 360 7.0 12.0 0.00 0.00 0.00 79 1018.9
20260906054503 57 360 6.0 11.0 0.00 0.00 0.00 80 1018.9
20260906053003 58 360 7.0 12.0 0.00 0.00 0.00 77 1019.1
20260906051506 59 360 7.0 11.0 0.00 0.00 0.00 75 1019.2
20260906050002 59 360 10.0 14.0 0.00 0.00 0.00 74 1018.3
20260906044602 59 360 7.0 11.0 0.00 0.00 0.00 73 1018.3
20260906043100 59 336 9.0 13.0 0.00 0.00 0.00 72 1018.3
20260906041605 59 360 9.0 14.0 0.00 0.00 0.00 72 1018.5
20260906034555 59 360 10.0 15.0 0.00 0.00 0.00 72 1018.4
20260906033055 60 360 10.0 16.0 0.00 0.00 0.00 70 1017.8
20260906031554 60 360 11.0 16.0 0.00 0.00 0.00 69 1017.5
20260906030054 60 360 10.0 18.0 0.00 0.00 0.00 67 1017.3
20260906024602 61 360 10.0 17.0 0.00 0.00 0.00 66 1017.0
20260906023053 61 320 12.0 19.0 0.00 0.00 0.00 65 1016.9
20260906021552 61 360 13.0 18.0 0.00 0.00 0.00 64 1017.1
20260906020052 62 360 9.0 16.0 0.00 0.00 0.00 64 1017.0
20260906014602 63 360 11.0 18.0 0.00 0.00 0.00 63 1016.9
20260906013051 63 360 11.0 18.0 0.00 0.00 0.00 62 1016.7
20260906011550 64 360 11.0 17.0 0.00 0.00 0.00 61 1016.8
20260906010050 65 360 11.0 18.0 0.00 0.00 0.00 59 1016.8
20260906004548 65 360 13.0 18.0 0.00 0.00 0.00 58 1016.5
20260906003105 66 360 10.0 16.0 0.00 0.00 0.00 58 1016.5
20260906001549 67 360 12.0 18.0 0.00 0.00 0.00 56 1016.7
20260906000046 70 322 12.0 20.0 0.00 0.00 0.00 50 1016.6
20260905234545 71 298 12.0 19.0 0.00 0.00 0.00 48 1016.7
20260905233045 72 360 11.0 18.0 0.00 0.00 0.00 45 1016.5
20260905231544 73 360 10.0 15.0 0.00 0.00 0.00 40 1016.4
20260905230043 73 360 9.0 14.0 0.00 0.00 0.00 38 1016.4